User: anonymous   Login
Location: Freistadt
(48.5112°N, 14.5013°E)
Time: 04:19:10
(UTC+02:00)
Language:

AAUSAT CUBESAT 2 - Orbit

View from above orbital plane
View from above orbital plane
View from above satellite
View from above satellite

Ground track
Ground track

The orbit data is extracted from the following two-line orbital elements,

1 32788U 08021F   24111.48994644  .00037399  00000-0  20344-2 0  9992
2 32788  97.5923  91.6982 0007026  38.9665 321.2071 15.14336293869581
Epoch (UTC): 20 April 2024 11:45:31
Eccentricity: 0.0007026
inclination: 97.5923°
perigee height: 518 km
apogee height: 528 km
right ascension of ascending node: 91.6982°
argument of perigee: 38.9665°
revolutions per day: 15.14336293
mean anomaly at epoch: 321.2071°
orbit number at epoch: 86958

The dashed part of the orbit path shows where the satellite is in the earth's shadow,  

DLR